Regional Weather Roundup
Issued by NWS

Home | Current Version | Previous Version | Text Only | Print | Product List | Glossary On
Versions: 1 2 3 4 5 6 7 8 9 10 11 12 13 14 15 16 17 18 19 20 21 22 23 24 25 26 27 28 29 30 31 32 33 34 35 36 37 38 39 40 41 42 43 44 45 46 47 48 49 50
000
ASUS44 KFWD 040215
RWRTX
NORTH TEXAS HOURLY WEATHER ROUNDUP
NATIONAL WEATHER SERVICE FORT WORTH TX
900 PM CDT TUE MAY 03 2016

NOTE: "FAIR" INDICATES FEW OR NO CLOUDS BELOW 12,000 FEET WITH NO
SIGNIFICANT WEATHER AND/OR OBSTRUCTIONS TO VISIBILITY.

TXZ118-119-040300-
DALLAS/FORT WORTH METROPLEX

CITY           SKY/WX    TMP DP  RH WIND       PRES   REMARKS
DFW AIRPORT    CLOUDY    68  44  42 CALM      30.05R
DALLAS LOVE    MOCLDY    69  46  43 CALM      30.05R
FTW MEACHAM    LGT RAIN  66  53  63 N10       30.06R
DAL-EXECUTIVE  CLEAR     60  47  61 CALM      30.06R
FTW-ALLIANCE   LGT RAIN  62  54  74 CALM      30.03F
FTW-NAS-JRB    LGT RAIN  65  56  72 N12       30.07R
FTW-SPINKS     CLOUDY    65  51  59 NE3       30.08R
ARLINGTON      CLEAR     65  48  54 N3        30.06R
GRAND PRAIRIE  CLEAR     67  43  42 N5        30.08R
MESQUITE       CLEAR     63  48  59 CALM      30.06R
LANCASTER      CLEAR     65  47  52 CALM      30.07R
$$

TXZ091>094-102>105-117-120-121-131>134-040300-
NORTH CENTRAL TEXAS

CITY           SKY/WX    TMP DP  RH WIND       PRES   REMARKS
SHRMAN/DENISON CLOUDY    63  44  50 CALM      30.05R
GAINESVILLE    CLOUDY    58  53  86 N5        30.07R
BOWIE          PTCLDY    56  55  95 CALM      30.05S
BRIDGEPORT     CLOUDY    58  58 100 CALM      30.07R
DECATUR        CLOUDY    59  55  88 SE3       30.04R
DENTON         MOCLDY    61  55  81 S5        30.03F
MCKINNEY       PTCLDY    62  54  74 S6        30.04S
GREENVILLE     CLEAR     61  55  82 CALM      30.05R
ROCKWALL       CLEAR     63  49  60 CALM      30.05R
TERRELL        CLEAR     62  52  69 CALM      30.06R
WAXAHACHIE     CLEAR     61  50  65 CALM      30.08R
CLEBURNE       PTCLDY    66  50  55 CALM      30.08R
GRANBURY       CLOUDY    67  53  60 N10G20    30.09R
$$

TXZ083>090-098>101-113>116-127>130-139>142-154-155-040300-
WESTERN NORTH TEXAS

CITY           SKY/WX    TMP DP  RH WIND       PRES   REMARKS
WICHITA FALLS  CLOUDY    56  53  90 S5        30.04S
WF-KICKAPOO    PTCLDY    60  56  85 S5        30.06S
VERNON         PTCLDY    61  51  70 SW7       30.06R
ABILENE        NOT AVBL
ABILENE-DYESS  PTCLDY    59  56  90 NE6       30.09S
BRECKENRIDGE   DRIZZLE   62  55  80 N9        30.11R
GRAHAM         CLOUDY    58  58 100 SW5       30.06R
MINERAL WELLS  LGT RAIN  60  56  86 E6        30.05S
STEPHENVILLE   CLOUDY    65  51  59 CALM      30.10R
COMANCHE       CLOUDY    65  53  65 E3        30.07R
BROWNWOOD      CLOUDY    68  54  60 NW16G23   30.09R
COLEMAN        CLOUDY    61  54  78 NE14      30.10R
$$

TXZ143>147-156>162-174-175-040300-
CENTRAL TEXAS

CITY           SKY/WX    TMP DP  RH WIND       PRES   REMARKS
WACO           CLEAR     62  51  67 NE3       30.06R
WACO-MCGREGOR  CLEAR     64  51  62 N5        30.06R
HILLSBORO      CLEAR     62  47  57 NE6       30.06R
CORSICANA      CLEAR     65  48  54 N3        30.07R
HEARNE         CLEAR     63  48  58 CALM      30.05R
KILLEEN        CLEAR     65  50  57 E5        30.06R
KILLEEN-SKYLRK CLEAR     63  52  67 NE3       30.06R
FORT HOOD      CLEAR     65  50  57 VRB5      30.04R
GATESVILLE     CLEAR     64  50  59 MISG      30.08R
HAMILTON       CLEAR     65  51  59 MISG      30.08R
LAMPASAS       CLEAR     63  54  71 CALM      30.06R
$$

TXZ095>097-106>112-122>126-135>138-148>153-164>167-040300-
EAST TEXAS

CITY           SKY/WX    TMP DP  RH WIND       PRES   REMARKS
PARIS          CLEAR     63  46  55 NW5       30.04R
SULPHUR SPRNGS CLEAR     63  50  63 CALM      30.06R
MOUNT PLEASANT CLEAR     62  51  68 CALM      30.04R
GILMER         CLEAR     59  51  75 CALM      30.03S
MINEOLA        CLEAR     61  52  72 CALM      30.05R
TYLER          CLEAR     63  49  60 CALM      30.04R
LONGVIEW       CLEAR     61  51  70 NW3       30.02R
MARSHALL       CLEAR     57  53  86 CALM      30.04R
ATHENS         CLEAR     59  46  63 CALM      30.04R
PALESTINE      CLEAR     59  52  79 CALM      30.05R
JACKSONVILLE   CLEAR     63  49  59 CALM      30.06R
HENDERSON      CLEAR     61  51  70 CALM      30.05R
CENTER         FAIR      60  56  84 CALM      30.02R
NACOGDOCHES    CLEAR     59  52  77 CALM      30.02R
LUFKIN         CLEAR     60  53  77 N3        30.01R
$$

SUPPLEMENTAL OBSERVATIONS (CENTRAL)

CITY           SKY/WX    TMP DP  RH WIND       PRES   REMARKS
LAKE TEXOMA      N/A     66  46  48 E3          N/A
PAT MAYSE LAKE   N/A     63  48  59 NW1         N/A
GREENVILLE       N/A     63  52  67 W2          N/A
CEDAR HILL       N/A     59  48  67 CALM        N/A
ATHENS           N/A     61  50  67 CALM        N/A
LAKE LIMESTONE   N/A     61  48  63 N3          N/A
MCGREGOR         N/A     63  50  63 N2          N/A
TEMPLE           N/A     66  48  52 N6          N/A
$$

SUPPLEMENTAL OBSERVATIONS (WEST)

CITY           SKY/WX    TMP DP  RH WIND       PRES   REMARKS
MILLERS CREEK    N/A     57  52  82 S2          N/A
POSSUM KINGDOM   N/A     61  54  77 W14G22      N/A
GRANBURY         N/A     66  52  59 N10         N/A
COMANCHE         N/A     64  48  55 E1          N/A
HAMBY            N/A     57  52  82 E6          N/A
IVIE RESERVOIR   N/A     66  46  48 E7          N/A
COLORADO BEND    N/A     63  48  59 SE1         N/A
$$

SUPPLEMENTAL OBSERVATIONS (EAST)

CITY           SKY/WX    TMP DP  RH WIND       PRES   REMARKS
CLARKSVILLE      N/A     61  48  63 CALM        N/A
TEXARKANA        N/A     55  52  88 CALM        N/A
LINDEN           N/A     59  50  72 CALM        N/A
GILMER           N/A     59  52  77 CALM        N/A
HENDERSON        N/A     59  52  77 CALM        N/A
N SABINE NF      N/A     57  52  82 MISG        N/A
S SABINE NF      N/A     61  52  72 W2          N/A
$$

SUPPLEMENTAL OBSERVATIONS ARE A COLLECTION OF AUTOMATED INSTRUMENTS
THAT ARE MAINTAINED BY A VARIETY OF FEDERAL AND STATE AGENCIES.
CERTAIN ELEMENTS...SUCH AS HUMIDITY VALUES AND SUSTAINED WIND
SPEEDS...MAY BE APPROXIMATED.





USA.gov is the U.S. government's official web portal to all federal, state and local government web resources and services.